Date,TemperatureHighF,TemperatureAvgF,TemperatureLowF,DewpointHighF,DewpointAvgF,DewpointLowF,HumidityHigh,HumidityAvg,HumidityLow,PressureMaxIn,PressureMinIn,WindSpeedMaxMPH,WindSpeedAvgMPH,GustSpeedMaxMPH,PrecipitationSumIn
2013-1-1,21.6,9.8,-5.6,16.6,4.0,-11.5,83,76,71,29.57,29.37,7,0,17,0.00
2013-1-2,20.8,17.6,14.0,15.7,12.8,9.8,85,81,76,29.60,29.37,7,0,16,0.00
2013-1-3,25.9,19.9,13.8,23.2,15.8,9.7,90,84,78,29.54,29.27,9,0,20,0.00
2013-1-4,32.4,28.3,22.8,27.5,22.0,18.2,83,77,67,29.49,29.20,11,2,31,0.00
2013-1-5,31.5,25.2,18.7,22.4,18.8,12.4,84,77,68,29.67,29.32,8,0,18,0.00
2013-1-6,28.6,24.7,17.4,23.2,19.0,9.8,88,79,68,29.70,29.27,5,0,11,0.00
2013-1-7,37.9,27.0,14.5,30.7,21.0,7.9,86,78,72,29.72,29.28,10,1,30,0.02
2013-1-8,38.7,32.2,28.0,30.7,26.9,23.3,88,81,71,29.59,29.35,3,0,8,0.00
2013-1-9,37.4,34.1,31.8,31.9,28.9,26.2,88,81,74,29.82,29.22,11,2,28,0.02
2013-1-10,37.9,32.9,26.6,31.3,27.3,21.9,88,80,73,29.99,29.63,7,0,17,0.05
2013-1-11,37.0,35.6,34.3,36.3,34.3,31.3,99,95,88,29.63,29.14,5,0,12,0.57
2013-1-12,43.5,38.5,32.5,43.3,37.1,29.7,99,95,85,29.39,29.08,7,0,16,0.01
2013-1-13,32.7,30.1,26.2,30.2,27.4,23.7,91,89,85,29.40,29.31,5,0,11,0.00
2013-1-14,26.4,21.0,10.8,23.9,17.0,6.4,91,84,75,29.76,29.37,8,0,17,0.00
2013-1-15,26.8,19.4,12.0,20.1,14.0,7.7,87,79,72,29.78,29.46,6,0,16,0.00
2013-1-16,28.6,21.4,12.7,26.3,17.4,7.8,91,84,75,29.46,29.01,11,1,30,0.00
2013-1-17,12.9,5.4,-5.1,8.1,-0.0,-10.5,83,77,72,29.73,29.44,11,1,22,0.00
2013-1-18,16.5,10.7,2.1,13.4,7.0,-2.0,87,84,82,29.73,29.34,5,0,12,0.00
2013-1-19,27.9,21.0,17.6,25.9,18.2,14.6,93,88,84,29.31,28.82,8,0,16,0.00
2013-1-20,25.5,8.2,1.4,22.1,3.1,-4.0,88,79,74,29.55,28.82,11,0,20,0.00
2013-1-21,12.6,2.6,-3.1,6.8,-2.7,-9.4,83,78,69,29.52,29.31,3,0,9,0.00
2013-1-22,1.4,-7.0,-12.5,-7.1,-14.1,-19.4,74,69,63,29.66,29.46,1,0,6,0.00
2013-1-23,7.3,-2.0,-13.0,1.5,-7.4,-19.1,80,77,72,29.75,29.47,2,0,12,0.00
2013-1-24,0.0,-9.7,-17.7,0.0,-14.2,-23.4,76,56,72,30.07,29.75,3,0,8,0.00
2013-1-25,0.0,0.0,0.0,0.0,0.0,0.0,0,0,100,29.70,29.46,0,0,0,0.00
2013-1-26,0.0,0.0,0.0,0.0,0.0,0.0,0,0,100,29.83,29.52,0,0,0,0.00
2013-1-27,28.0,15.6,-4.0,23.9,11.6,-9.1,90,84,74,29.64,29.19,5,0,15,0.00
2013-1-28,35.2,30.6,25.9,32.4,28.4,23.1,94,91,88,29.44,29.16,1,0,7,0.00
2013-1-29,34.0,31.3,28.0,33.5,29.8,25.5,98,94,90,29.31,28.81,1,0,9,0.00
2013-1-30,34.3,28.7,10.9,34.1,27.3,7.0,99,94,85,28.81,28.48,5,0,14,0.00
2013-1-31,11.8,6.4,1.4,7.0,1.8,-3.7,84,80,78,29.15,28.53,0,0,0,0.00
2013-2-1,13.6,5.3,-1.7,8.1,0.6,-6.4,82,80,77,29.39,29.14,0,0,0,0.00
2013-2-2,14.9,6.4,-4.4,7.0,0.9,-9.0,83,77,69,29.35,29.28,0,0,0,0.00
2013-2-3,19.4,7.6,0.7,14.9,3.3,-4.1,85,82,79,29.29,29.04,0,0,0,0.00
2013-2-4,14.9,3.5,-13.7,8.4,-1.8,-18.9,82,78,71,29.31,29.19,0,0,0,0.00
2013-2-5,20.3,11.2,1.2,15.7,6.8,-3.5,86,82,77,29.27,29.00,0,0,0,0.00
2013-2-6,11.8,5.3,-6.7,5.8,-0.0,-12.0,82,78,74,29.59,29.27,0,0,0,0.00
2013-2-7,20.5,14.7,10.0,15.1,10.3,5.7,86,82,79,29.60,29.51,0,0,0,0.00
2013-2-8,26.1,13.9,-1.8,16.2,7.0,-9.0,82,74,62,29.72,29.50,0,0,0,0.00
2013-2-9,23.9,6.1,-12.8,17.8,0.1,-18.7,84,75,69,29.75,29.52,0,0,0,0.00
2013-2-10,32.9,25.3,13.6,28.1,21.2,9.8,90,84,80,29.53,28.93,5,0,11,0.00
2013-2-11,35.8,32.6,25.7,34.8,31.1,23.7,96,94,90,29.00,28.65,11,0,23,0.02
2013-2-12,29.5,24.8,17.1,26.5,22.0,13.7,92,89,86,29.21,29.00,8,0,17,0.00
2013-2-13,37.2,25.0,14.5,31.4,21.3,11.4,92,86,77,29.13,28.96,3,0,9,0.00
2013-2-14,36.5,30.7,23.4,34.2,28.5,19.8,94,91,86,29.12,28.95,2,0,7,0.00
2013-2-15,23.2,15.8,9.1,19.7,10.6,4.1,86,79,71,29.41,29.11,0,0,0,0.00
2013-2-16,19.8,8.1,-0.2,11.6,1.9,-5.8,81,75,65,29.46,29.37,0,0,0,0.00
2013-2-17,22.6,4.6,-10.7,14.3,-2.1,-15.6,80,73,63,29.51,29.42,0,0,0,0.00
2013-2-18,30.9,9.5,4.1,26.8,3.1,-2.8,87,74,72,29.43,28.85,0,0,0,0.00
2013-2-19,34.0,32.0,30.2,32.7,30.0,26.8,95,92,87,28.85,28.46,0,0,0,0.00
2013-2-20,15.6,7.9,0.5,9.2,2.1,-4.8,82,77,73,29.51,29.11,5,0,11,0.09
2013-2-21,10.4,10.4,10.4,3.9,3.9,3.9,74,74,74,29.51,29.51,0,0,2,0.00
2013-2-22,27.0,13.8,10.4,23.9,8.0,3.9,89,77,74,29.51,29.18,1,0,6,0.05
2013-2-23,36.9,30.4,25.3,33.3,27.0,20.9,92,87,81,29.16,29.08,0,0,2,0.00
2013-2-24,39.0,27.1,19.0,33.1,22.8,15.5,90,84,76,29.43,29.15,3,0,11,0.00
2013-2-25,34.2,28.6,23.7,29.1,24.8,19.9,90,86,80,29.51,29.43,0,0,2,0.00
2013-2-26,35.1,30.8,27.9,30.1,26.3,22.5,90,83,75,29.52,29.22,3,0,11,0.00
2013-2-27,36.9,32.5,27.7,30.8,27.2,22.6,83,81,75,29.23,29.05,8,0,16,0.00
2013-2-28,34.0,28.6,17.1,28.5,21.4,9.5,83,74,62,29.47,29.09,11,1,25,0.00
2013-3-1,33.8,19.0,6.4,21.5,10.5,1.5,81,70,57,29.57,29.46,7,0,14,0.00
2013-3-2,27.5,14.5,1.4,17.2,6.8,-5.1,77,71,63,29.56,29.42,7,0,15,0.00
2013-3-3,27.9,11.7,-2.4,16.7,4.3,-8.1,79,72,61,29.44,29.35,5,0,15,0.00
2013-3-4,31.1,13.5,-4.7,5.3,-1.4,-15.3,75,54,33,29.49,29.41,6,0,14,0.00
2013-3-5,39.7,20.5,2.5,17.2,4.6,-10.6,61,51,37,29.52,29.39,5,0,9,0.19
2013-3-6,40.5,30.9,26.6,25.7,19.9,14.4,75,64,55,29.56,29.46,6,0,16,0.05
2013-3-7,34.3,28.7,24.6,24.0,20.4,17.2,76,71,64,29.74,29.55,8,0,17,0.02
2013-3-8,45.0,31.2,17.6,33.5,22.9,9.2,78,72,63,29.81,29.68,2,0,11,0.00
2013-3-9,36.3,29.6,21.2,29.9,23.8,14.9,87,79,73,29.69,29.31,3,0,10,0.00
2013-3-10,36.1,34.0,32.7,35.4,32.7,29.3,97,95,87,29.31,29.13,5,0,9,1.13
2013-3-11,37.9,35.1,32.7,37.7,34.8,32.2,99,99,97,29.25,28.74,2,0,6,0.71
2013-3-12,32.7,26.8,20.8,32.5,24.9,17.5,99,92,86,29.14,28.75,0,0,0,0.02
2013-3-13,27.5,19.8,13.3,17.6,11.0,6.2,87,69,52,29.45,29.13,0,0,0,0.00
2013-3-14,36.9,20.8,0.5,14.2,2.9,-12.1,57,47,32,29.54,29.23,6,0,11,0.02
2013-3-15,30.2,25.5,17.6,22.6,9.7,-3.7,73,52,39,29.30,29.09,12,2,33,0.02
2013-3-16,25.9,16.1,7.3,3.7,-7.2,-13.5,53,36,24,29.36,29.25,6,0,14,0.00
2013-3-17,30.9,15.0,-1.1,3.8,-7.7,-17.7,54,38,20,29.65,29.29,7,0,16,0.09
2013-3-18,36.0,21.0,6.8,15.7,1.0,-14.3,62,43,27,29.57,28.87,5,1,16,0.07
2013-3-19,34.0,28.9,24.1,25.3,20.3,15.4,74,70,62,29.04,28.72,2,0,11,0.00
2013-3-20,34.5,25.0,17.6,25.1,16.5,9.9,73,70,66,29.11,29.01,6,0,11,0.00
2013-3-21,34.0,24.9,19.6,16.8,13.0,10.3,71,61,48,29.20,29.10,8,0,20,0.00
2013-3-22,36.7,26.5,15.6,18.8,13.0,3.4,65,57,47,29.35,29.18,8,1,20,0.00
2013-3-23,41.0,27.4,15.3,21.6,14.5,6.2,72,59,42,29.44,29.34,8,0,20,0.02
2013-3-24,39.0,29.4,17.4,19.3,14.8,7.0,66,56,44,29.43,29.20,7,0,16,0.09
2013-3-25,41.4,33.9,28.2,23.6,18.0,13.7,58,53,43,29.31,29.21,8,0,17,0.07
2013-3-26,40.8,35.1,32.0,23.9,21.8,18.6,67,59,50,29.42,29.31,9,1,31,0.00
2013-3-27,39.7,33.5,28.9,24.6,21.8,18.7,72,63,52,29.50,29.39,9,1,25,0.00
2013-3-28,41.4,34.0,27.9,25.5,22.3,18.4,75,63,45,29.57,29.48,9,1,18,0.00
2013-3-29,45.9,34.3,23.9,27.4,21.6,14.5,77,61,41,29.59,29.51,8,0,14,0.00
2013-3-30,46.6,32.0,21.4,27.4,19.9,11.0,77,62,42,29.52,29.11,5,0,15,0.12
2013-3-31,38.3,33.5,23.5,36.2,28.7,16.0,92,83,66,29.11,28.86,8,0,22,0.35
2013-4-1,27.9,21.2,16.2,16.2,10.1,6.2,73,62,47,29.33,28.95,0,0,0,0.02
2013-4-2,30.4,21.8,10.9,13.5,8.8,0.5,66,58,46,29.51,29.31,11,1,23,0.00
2013-4-3,38.8,26.3,12.0,10.2,5.5,-3.7,53,43,29,29.70,29.50,9,1,18,0.02
2013-4-4,38.1,31.5,23.0,32.1,22.5,8.7,80,70,52,29.55,29.21,7,0,20,0.33
2013-4-5,34.5,28.0,20.5,23.4,13.9,6.5,72,57,41,29.56,29.29,9,1,26,0.00
2013-4-6,32.9,26.3,16.9,26.6,16.2,4.8,78,66,54,29.54,29.00,5,0,12,0.02
2013-4-7,37.4,34.0,32.2,33.5,29.3,26.6,90,83,78,29.38,28.77,10,1,20,0.73
2013-4-8,38.7,34.7,31.6,30.8,28.9,27.1,86,79,70,29.38,29.22,5,0,11,0.12
2013-4-9,39.6,35.2,32.0,38.1,32.6,29.7,95,90,86,29.45,29.34,7,0,10,0.00
2013-4-10,45.5,35.3,30.6,30.6,25.9,20.6,91,70,50,29.50,29.41,9,0,18,0.00
2013-4-11,36.0,31.2,25.0,21.0,13.2,9.1,60,48,41,29.53,29.32,7,1,18,0.02
2013-4-12,34.5,29.5,25.2,23.4,19.6,13.7,73,67,49,29.33,29.01,7,0,15,0.00
2013-4-13,41.2,32.7,28.0,30.0,24.1,20.5,76,71,61,29.19,29.01,6,0,14,0.40
2013-4-14,45.1,35.6,29.7,31.8,26.2,22.9,82,69,57,29.41,29.18,5,0,12,0.07
2013-4-15,41.4,36.9,33.8,38.7,31.4,23.4,94,81,64,29.37,29.12,8,1,16,0.54
2013-4-16,42.4,35.7,29.1,35.8,30.6,26.6,94,82,71,29.64,29.15,11,1,28,0.00
2013-4-17,45.3,36.8,28.2,34.3,28.8,24.3,86,74,59,29.78,29.49,8,0,17,0.00
2013-4-18,43.7,39.3,37.0,42.1,34.1,25.0,94,83,60,29.50,28.79,8,1,16,0.61
2013-4-19,39.7,35.5,24.1,39.5,32.8,18.6,99,90,77,28.88,28.51,12,1,28,0.21
2013-4-20,30.6,23.7,16.2,18.6,12.9,7.5,79,64,52,29.76,28.88,9,1,24,0.02
2013-4-21,45.9,29.3,12.9,24.9,15.4,3.6,72,58,37,29.94,29.72,9,1,20,0.00
2013-4-22,50.9,41.1,33.6,33.5,26.9,22.2,67,58,47,29.73,29.49,7,1,24,0.00
2013-4-23,43.5,38.4,32.5,37.5,29.3,24.4,87,71,53,29.49,29.18,3,0,14,0.57
2013-4-24,43.7,35.9,29.8,30.2,24.6,15.3,87,67,37,29.32,29.19,8,0,24,0.02
2013-4-25,39.2,32.7,27.7,34.1,24.6,15.6,84,72,58,29.58,29.24,9,0,18,0.24
2013-4-26,45.5,35.6,26.1,37.3,30.0,20.3,85,80,65,29.66,29.53,6,0,14,0.40
2013-4-27,68.2,48.0,32.2,57.4,41.4,28.8,94,79,57,29.56,29.43,3,0,11,0.02
2013-4-28,71.4,52.5,36.9,51.3,40.3,32.6,88,67,41,29.44,29.20,7,0,15,0.00
2013-4-29,55.6,51.5,49.3,51.1,47.3,41.6,92,86,70,29.24,29.18,6,0,11,0.05
2013-4-30,69.1,55.3,48.9,59.2,51.3,47.0,99,87,67,29.26,29.15,8,1,18,0.00
2013-5-1,68.2,54.1,41.0,57.5,45.4,33.1,91,74,48,29.64,29.25,9,1,23,0.00
2013-5-2,77.0,51.7,37.8,58.9,41.3,32.3,87,70,44,29.64,29.54,6,0,15,0.00
2013-5-3,74.7,55.8,38.8,48.7,40.4,32.2,86,60,37,29.54,29.48,6,0,18,0.00
2013-5-4,80.6,63.5,45.1,53.1,45.2,37.2,77,55,36,29.51,29.46,3,0,15,0.00
2013-5-5,79.9,58.8,41.5,50.1,42.3,35.1,84,59,28,29.51,29.42,5,0,8,0.00
2013-5-6,82.6,57.2,36.9,49.2,38.9,31.1,86,58,25,29.47,29.36,6,0,11,0.00
2013-5-7,87.6,60.6,37.8,47.2,37.9,30.6,83,52,18,29.47,29.37,3,0,9,0.00
2013-5-8,87.1,63.5,41.9,49.1,36.0,24.0,76,45,14,29.41,29.30,6,0,15,0.00
2013-5-9,74.3,55.9,42.8,48.4,40.0,31.6,77,58,35,29.45,29.29,6,0,20,0.00
2013-5-10,48.7,41.2,34.2,38.6,32.7,29.8,85,72,58,29.46,29.27,6,0,15,0.47
2013-5-11,51.3,37.2,30.4,39.0,30.9,24.7,91,79,60,29.28,28.98,8,0,20,0.33
2013-5-12,34.5,32.8,30.2,32.2,30.3,27.3,93,90,87,29.32,28.95,10,1,28,0.07
2013-5-13,48.9,38.5,29.7,33.3,29.6,25.8,91,73,46,29.44,29.31,8,1,18,0.50
2013-5-14,59.5,47.1,37.8,44.4,37.2,30.0,82,70,53,29.37,29.03,9,2,20,0.02
2013-5-15,70.7,53.7,42.1,47.3,39.1,34.4,82,62,33,29.06,28.84,16,2,40,0.00
2013-5-16,58.5,48.7,41.5,39.5,35.7,32.2,72,62,48,29.43,29.06,10,1,24,0.00
2013-5-17,76.1,55.0,35.6,47.4,38.2,29.4,84,58,31,29.56,29.42,6,0,12,0.00
2013-5-18,72.9,56.6,43.2,47.9,40.3,34.1,73,57,37,29.58,29.41,6,0,14,0.00
2013-5-19,83.7,64.1,53.4,59.3,50.3,41.9,81,63,44,29.41,29.22,5,0,12,0.12
2013-5-20,72.3,61.7,54.5,60.0,54.4,48.9,89,78,62,29.29,29.13,8,1,20,0.31
2013-5-21,60.8,56.4,53.6,60.0,54.7,50.8,99,94,89,29.20,29.06,8,1,17,0.80
2013-5-22,58.1,55.8,52.3,55.7,53.7,50.2,99,93,83,29.16,29.06,7,0,18,0.19
2013-5-23,60.3,47.3,39.6,50.5,37.2,26.4,94,71,42,29.62,29.15,9,1,23,0.40
2013-5-24,55.2,43.2,31.8,34.5,29.1,24.3,78,59,43,29.74,29.61,8,1,20,0.00
2013-5-25,65.8,48.6,32.2,40.7,31.6,26.3,85,57,30,29.79,29.65,9,1,24,0.00
2013-5-26,44.1,38.5,34.7,30.3,29.2,28.0,77,69,58,29.70,29.66,0,0,0,0.00
2013-5-27,76.1,57.9,43.2,48.4,40.1,34.2,73,54,31,29.98,29.91,3,0,11,0.00
2013-5-28,72.9,60.2,53.6,49.6,45.3,41.2,81,60,37,29.96,29.73,5,0,12,0.05
2013-5-29,83.5,66.7,59.0,60.5,53.8,48.5,80,65,44,29.73,29.62,5,0,17,0.07
2013-5-30,87.3,67.6,54.5,72.1,58.9,51.3,90,75,56,29.65,29.53,7,1,20,1.82
2013-5-31,84.0,70.1,63.7,69.4,63.9,59.6,96,82,57,29.62,29.50,6,0,15,0.28
2013-6-1,77.4,66.2,60.1,72.1,62.4,58.0,99,88,76,29.52,29.37,2,0,14,0.64
2013-6-2,60.1,47.4,39.6,58.9,44.2,34.5,99,89,76,29.72,29.35,11,1,43,0.19
2013-6-3,55.9,44.8,36.0,41.4,35.8,30.8,91,72,53,29.85,29.70,10,1,28,0.00
2013-6-4,70.2,51.1,32.9,47.0,35.1,28.6,89,60,29,29.95,29.85,7,0,16,0.00
2013-6-5,61.2,53.5,47.1,47.0,43.1,35.7,78,68,57,29.99,29.88,5,0,11,0.00
2013-6-6,80.2,59.7,49.3,48.9,42.1,32.3,86,57,30,29.89,29.73,3,0,12,0.00
2013-6-7,79.0,59.9,42.4,50.0,38.3,30.5,80,51,23,29.75,29.64,6,0,16,0.00
2013-6-8,78.8,58.6,40.5,51.2,40.2,30.9,82,56,25,29.80,29.66,3,0,11,0.00
2013-6-9,84.0,61.7,40.6,53.0,43.5,34.1,83,56,31,29.88,29.79,5,0,15,0.00
2013-6-10,85.5,68.9,58.3,62.7,52.8,43.9,75,58,47,29.80,29.59,3,0,11,0.00
2013-6-11,74.7,66.3,58.3,66.6,60.3,54.7,90,81,68,29.62,29.56,2,0,6,0.07
2013-6-12,83.7,64.4,50.2,65.9,52.8,45.8,97,72,35,29.66,29.52,5,0,14,0.02
2013-6-13,80.2,63.5,50.5,60.6,51.6,43.1,89,68,46,29.79,29.49,8,1,16,0.00
2013-6-14,76.5,58.4,41.4,49.3,39.7,31.3,77,55,26,29.90,29.77,6,0,11,0.00
2013-6-15,73.8,59.4,43.9,56.0,45.9,35.1,86,63,47,29.79,29.58,1,0,5,0.43
2013-6-16,75.2,61.2,53.1,65.3,55.5,46.6,99,83,55,29.59,29.46,7,0,18,0.02
2013-6-17,73.4,57.8,47.3,58.3,48.1,40.4,92,72,48,29.77,29.56,3,0,14,0.00
2013-6-18,72.7,57.5,44.2,45.3,40.2,35.6,84,57,32,29.88,29.77,7,1,20,0.00
2013-6-19,80.8,59.9,40.1,51.5,42.9,34.7,85,59,31,29.94,29.81,5,0,15,0.00
2013-6-20,68.7,57.6,47.1,64.8,53.0,40.4,96,85,65,29.92,29.84,1,0,7,0.26
2013-6-21,65.7,61.4,57.7,62.0,59.0,55.6,99,92,85,29.93,29.69,9,0,20,1.91
2013-6-22,73.6,65.5,61.0,71.8,64.2,60.5,99,96,84,29.82,29.67,5,0,12,0.00
2013-6-23,84.9,68.0,59.5,74.9,65.0,58.3,99,91,69,29.78,29.60,2,0,9,0.02
2013-6-24,88.0,73.3,60.6,72.0,65.4,57.8,96,79,54,29.69,29.58,2,0,8,0.00
2013-6-25,90.0,73.3,62.6,72.6,63.2,55.4,93,74,45,29.61,29.54,5,0,10,0.00
2013-6-26,94.5,73.5,55.6,71.9,62.3,52.4,94,72,44,29.57,29.49,2,0,6,0.00
2013-6-27,81.9,67.2,32.0,73.5,64.4,0.1,99,91,72,29.56,29.43,3,0,9,0.83
2013-6-28,72.3,10.8,-39.5,67.0,9.4,-40.7,99,95,80,29.44,29.37,6,0,11,0.26
2013-6-29,79.5,67.2,57.4,64.4,59.8,51.9,97,79,56,29.57,29.41,6,0,14,0.00
2013-6-30,78.3,65.7,52.2,53.9,47.2,42.9,82,54,36,29.81,29.57,7,1,17,0.00
2013-7-1,85.1,67.0,52.7,54.9,47.0,39.6,77,53,26,29.95,29.81,6,0,14,0.00
2013-7-2,81.9,63.6,47.5,51.7,45.0,40.6,83,56,31,29.95,29.84,5,0,10,0.00
2013-7-3,88.7,68.9,56.5,58.9,51.8,46.2,79,59,35,29.89,29.78,3,0,8,0.00
2013-7-4,84.6,69.8,60.3,67.9,60.7,53.4,88,74,55,29.81,29.75,2,0,9,0.00
2013-7-5,93.0,73.5,57.6,70.7,61.2,54.3,94,70,39,29.80,29.71,1,0,9,0.00
2013-7-6,93.9,74.5,60.4,69.2,61.8,56.4,90,69,41,29.76,29.69,3,0,20,0.00
2013-7-7,65.5,61.0,59.0,59.9,56.4,55.3,92,85,76,29.74,29.68,0,0,2,0.00
2013-7-8,79.0,69.7,64.4,69.3,63.1,58.6,86,80,70,29.75,29.70,3,0,9,0.00
2013-7-9,87.8,73.2,62.6,74.1,66.6,59.3,95,81,61,29.76,29.49,1,0,6,0.02
2013-7-10,71.6,63.0,55.2,68.2,60.3,51.3,99,91,75,29.66,29.34,8,1,20,0.26
2013-7-11,79.2,62.2,50.7,59.5,53.5,48.4,97,75,47,29.86,29.66,5,0,12,0.00
2013-7-12,91.8,67.2,48.2,63.6,54.8,45.1,93,69,40,29.93,29.84,1,0,9,0.00
2013-7-13,93.4,73.0,57.7,65.8,57.6,51.2,85,63,30,29.95,29.88,5,0,10,0.00
2013-7-14,96.3,75.3,58.3,67.9,61.4,53.7,89,66,39,30.01,29.94,2,0,12,0.00
2013-7-15,133.5,74.6,61.9,99.9,69.5,53.4,99,85,54,30.04,29.97,2,0,11,0.05
2013-7-16,97.2,77.1,63.7,88.0,74.0,63.4,99,91,74,30.03,29.90,2,0,10,0.00
2013-7-17,95.4,79.6,70.2,86.9,76.2,69.9,99,90,70,29.94,29.83,6,0,17,0.00
2013-7-18,86.9,73.5,67.6,84.9,72.6,67.0,99,97,88,29.84,29.46,8,0,18,1.25
2013-7-19,126.1,33.2,-39.8,81.7,32.3,-40.0,99,97,87,29.53,29.35,7,0,17,0.97
2013-7-20,69.3,60.9,54.9,62.5,57.6,52.4,99,90,71,29.75,29.46,9,1,20,0.00
2013-7-21,81.7,62.6,46.4,74.8,59.4,45.6,99,90,77,29.82,29.71,2,0,8,0.00
2013-7-22,85.8,67.4,58.5,79.8,65.0,56.0,96,92,81,29.73,29.48,3,0,10,0.00
2013-7-23,65.3,57.3,51.1,51.7,48.3,46.4,85,73,60,29.70,29.59,8,1,30,0.00
2013-7-24,79.2,59.7,43.0,53.5,47.7,40.3,96,69,38,29.81,29.69,7,0,16,0.00
2013-7-25,82.6,64.4,49.5,63.5,54.7,45.4,91,73,47,29.82,29.74,3,0,10,0.00
2013-7-26,66.7,62.9,60.3,63.2,60.2,54.3,99,91,73,29.74,29.56,3,0,11,2.48
2013-7-27,69.6,58.1,53.4,64.2,56.1,51.2,99,94,70,29.62,29.47,8,0,17,0.01
2013-7-28,70.7,57.8,51.8,63.0,55.0,50.6,99,91,72,29.65,29.44,6,0,16,1.61
2013-7-29,68.7,58.7,53.1,62.1,54.9,49.1,99,88,64,29.90,29.65,7,0,15,0.14
2013-7-30,84.6,62.6,49.1,67.1,56.3,46.5,98,82,52,29.95,29.85,2,0,7,0.00
2013-7-31,80.8,64.5,57.0,69.8,60.9,56.4,99,89,66,29.86,29.61,6,0,12,0.73
2013-8-1,71.8,62.2,55.6,66.6,58.3,51.7,99,88,64,29.64,29.58,7,0,25,0.00
2013-8-2,71.8,58.7,50.4,69.6,55.7,48.3,99,90,69,29.64,29.54,6,0,20,0.87
2013-8-3,69.3,59.1,50.7,57.9,53.8,48.8,98,84,62,29.80,29.63,8,1,25,0.00
2013-8-4,72.0,60.8,51.4,56.7,52.3,46.4,91,76,55,29.93,29.79,6,0,18,0.00
2013-8-5,77.7,59.6,46.0,61.8,52.1,43.0,96,78,49,29.85,29.65,2,0,9,0.00
2013-8-6,78.4,66.8,59.7,69.0,62.1,55.0,94,85,70,29.66,29.53,3,0,7,0.05
2013-8-7,67.5,63.4,56.5,67.0,61.9,53.9,99,95,89,29.69,29.44,7,0,17,1.11
2013-8-8,77.4,61.7,48.9,59.7,53.8,47.8,99,79,46,29.78,29.69,5,0,12,0.00
2013-8-9,72.7,61.2,52.3,64.7,54.1,45.9,98,79,55,29.77,29.60,10,1,28,0.05
2013-8-10,74.3,59.9,47.8,57.6,51.5,44.4,96,76,54,29.86,29.77,7,0,20,0.00
2013-8-11,82.8,61.6,46.0,61.7,53.2,43.4,97,77,47,29.84,29.74,3,0,10,0.00
2013-8-12,77.9,61.8,53.1,67.6,56.4,47.3,96,83,61,29.75,29.60,7,0,17,0.00
2013-8-13,60.8,55.3,48.0,51.3,47.0,42.9,84,75,61,29.83,29.67,9,1,20,0.00
2013-8-14,73.0,60.1,50.0,55.5,50.9,45.9,96,75,48,29.88,29.81,7,0,17,0.00
2013-8-15,74.1,59.4,45.7,56.5,49.7,42.4,96,73,49,29.84,29.76,6,0,17,0.00
2013-8-16,86.2,64.4,47.3,62.0,53.7,44.4,97,73,39,29.94,29.83,3,0,11,0.00
2013-8-17,88.2,67.2,51.8,66.5,56.9,48.8,93,73,44,29.99,29.90,1,0,10,0.00
2013-8-18,81.9,66.0,53.2,67.5,59.0,50.2,96,79,59,29.93,29.80,1,0,7,0.00
2013-8-19,84.7,68.1,54.7,68.2,59.7,52.0,97,77,53,29.82,29.69,5,0,14,0.00
2013-8-20,89.8,73.4,60.8,74.0,64.6,57.8,95,76,51,29.75,29.62,3,0,12,0.00
2013-8-21,87.8,73.4,63.5,74.1,66.8,60.6,96,81,64,29.75,29.60,5,0,14,0.00
2013-8-22,81.0,69.1,58.6,65.6,59.0,52.8,95,73,42,29.86,29.63,6,0,16,0.00
2013-8-23,84.6,65.0,51.4,61.9,54.7,48.6,94,73,41,29.98,29.86,6,0,10,0.00
2013-8-24,86.2,66.3,52.2,65.5,57.1,48.4,93,75,47,30.03,29.94,2,0,7,0.00
2013-8-25,73.4,66.8,59.7,73.1,64.9,56.3,99,94,81,29.94,29.69,2,0,7,1.68
2013-8-26,85.3,72.7,67.3,78.4,70.0,65.1,99,92,68,29.75,29.60,8,0,24,1.13
2013-8-27,89.4,73.5,63.3,76.4,68.6,62.2,99,86,56,29.70,29.59,2,0,7,0.00
2013-8-28,85.8,73.0,62.4,75.7,67.1,60.4,99,83,62,29.79,29.61,6,0,12,0.00
2013-8-29,92.3,74.0,62.1,74.7,67.3,59.8,99,81,54,29.82,29.67,2,0,10,0.00
2013-8-30,76.8,70.0,63.9,74.4,68.1,61.2,99,94,84,29.68,29.49,5,0,16,1.18
2013-8-31,82.4,68.2,58.6,68.6,62.5,56.3,94,83,62,29.66,29.57,2,0,6,0.00
2013-9-1,69.8,64.7,57.4,68.1,63.3,57.1,99,95,88,29.60,29.42,5,0,11,0.83
2013-9-2,57.2,54.0,52.5,56.9,53.1,51.7,99,97,91,29.62,29.47,8,1,25,0.17
2013-9-3,72.3,61.0,54.1,59.0,53.6,51.1,92,78,56,29.69,29.62,8,1,22,0.02
2013-9-4,65.5,57.1,51.1,58.6,49.2,43.1,97,77,56,29.88,29.60,7,1,22,0.00
2013-9-5,66.2,54.8,43.0,48.0,43.2,40.3,91,67,44,30.06,29.88,6,0,16,0.00
2013-9-6,71.6,56.8,45.1,62.9,53.7,42.2,99,90,72,29.96,29.68,2,0,10,1.54
2013-9-7,74.7,64.1,55.4,74.4,63.5,53.5,99,98,88,29.80,29.60,6,0,14,0.17
2013-9-8,72.5,57.3,47.5,57.1,51.9,46.3,99,84,57,29.94,29.80,3,0,10,0.00
2013-9-9,62.4,57.3,50.2,62.1,55.6,46.8,99,94,86,29.82,29.47,2,0,11,3.35
2013-9-10,77.9,67.5,62.4,77.6,67.2,62.1,99,99,99,29.66,29.45,6,0,14,2.17
2013-9-11,75.0,66.5,62.4,71.7,64.9,61.7,99,95,74,29.68,29.62,7,0,11,0.33
2013-9-12,62.6,58.2,48.2,62.3,54.5,42.9,99,88,67,29.82,29.60,8,1,23,0.02
2013-9-13,59.5,47.7,40.3,45.0,39.7,34.3,87,75,58,29.94,29.82,8,0,17,0.00
2013-9-14,68.9,52.6,40.5,57.5,47.7,38.0,99,85,63,29.87,29.70,2,0,10,0.00
2013-9-15,60.3,54.4,43.5,59.8,52.9,39.6,99,95,86,29.99,29.67,6,0,16,0.33
2013-9-16,58.8,44.1,33.8,44.6,37.9,32.3,97,80,56,30.17,29.99,6,0,9,0.00
2013-9-17,70.2,49.1,35.1,53.8,42.7,33.0,98,81,54,30.15,29.91,1,0,6,0.00
2013-9-18,67.1,55.6,44.6,60.5,51.9,42.3,99,88,74,29.91,29.69,1,0,8,0.00
2013-9-19,73.8,65.9,60.4,67.8,62.2,57.5,94,88,79,29.70,29.52,1,0,8,0.00
2013-9-20,68.9,64.7,55.6,68.6,64.3,55.1,99,98,92,29.52,29.36,3,0,12,1.20
2013-9-21,55.4,50.9,43.0,55.1,46.0,39.5,99,84,67,29.64,29.44,8,1,22,0.14
2013-9-22,54.0,43.2,33.6,44.7,38.5,32.1,99,84,65,29.85,29.64,5,0,14,0.02
2013-9-23,64.6,46.5,34.2,51.4,41.2,32.4,97,83,60,29.96,29.85,1,0,6,0.00
2013-9-24,68.4,50.3,38.5,55.6,44.7,36.5,99,82,57,29.92,29.78,2,0,7,0.00
2013-9-25,71.1,52.0,38.5,55.7,45.0,36.0,99,79,49,29.81,29.75,1,0,6,0.00
2013-9-26,73.8,54.3,41.0,57.0,46.4,38.6,99,78,45,29.90,29.79,2,0,55,1.32
2013-9-27,73.9,56.8,43.7,57.8,48.8,41.1,96,77,52,29.98,29.89,2,0,8,0.00
2013-9-28,72.0,60.9,52.5,61.2,55.4,49.0,98,83,65,29.93,29.59,6,0,14,0.00
2013-9-29,64.2,56.6,45.3,57.3,50.5,41.4,97,81,57,29.75,29.56,7,0,16,0.45
2013-9-30,68.2,53.1,39.7,59.2,46.9,37.9,99,82,52,29.75,29.60,2,0,8,0.00
2013-10-1,73.2,59.9,50.2,63.1,55.3,46.4,94,86,69,29.62,29.43,6,0,23,0.00
2013-10-2,67.8,57.0,47.8,51.4,45.7,41.1,91,69,43,29.81,29.54,7,0,20,0.00
2013-10-3,55.8,51.4,44.1,52.4,47.5,39.9,93,87,80,29.82,29.74,3,0,9,0.14
2013-10-4,62.1,56.8,53.1,53.2,50.6,45.5,94,80,69,29.91,29.73,7,0,20,0.09
2013-10-5,54.5,49.2,45.9,47.1,43.4,40.1,95,81,69,29.91,29.70,8,0,17,0.76
2013-10-6,57.7,53.5,46.6,57.5,53.0,45.2,99,98,95,29.71,29.31,5,0,20,0.78
2013-10-7,54.9,49.6,44.4,54.6,48.0,41.2,99,94,80,29.75,29.26,8,1,20,0.21
2013-10-8,65.5,48.9,35.1,55.2,43.9,34.0,99,84,58,29.94,29.74,5,0,14,0.00
2013-10-9,72.0,56.8,48.2,59.8,51.0,45.5,98,83,60,29.96,29.89,2,0,11,0.00
2013-10-10,70.7,51.6,42.6,59.8,48.0,40.5,99,89,60,29.96,29.89,2,0,8,0.00
2013-10-11,67.1,56.5,48.9,59.1,51.2,44.6,98,84,61,29.94,29.82,2,0,11,0.00
2013-10-12,71.4,57.6,48.0,58.4,51.5,44.9,97,81,61,29.83,29.70,6,0,15,0.07
2013-10-13,59.2,50.2,39.9,58.0,45.4,35.0,98,84,68,30.11,29.71,7,0,22,0.05
2013-10-14,50.9,36.7,32.9,49.3,34.0,30.5,98,90,83,30.18,30.11,0,0,1,0.00
2013-10-16,48.7,48.2,47.8,47.7,47.0,46.0,96,95,94,29.54,29.46,5,0,12,0.12
2013-10-17,50.0,46.3,41.7,48.7,44.2,39.6,99,92,78,29.59,29.47,5,0,10,0.09
2013-10-18,52.9,44.5,35.8,49.3,42.3,34.2,99,92,80,29.54,29.46,5,0,12,0.05
2013-10-19,49.8,43.2,32.5,44.7,39.3,28.6,99,87,65,29.52,29.39,8,0,17,0.12
2013-10-20,50.0,39.8,31.5,47.8,37.7,29.0,99,92,85,29.54,29.44,1,0,7,0.17
2013-10-21,45.9,42.0,33.8,45.4,40.2,29.8,99,94,80,29.47,29.32,7,0,16,0.35
2013-10-22,42.4,35.1,28.9,37.0,31.8,25.7,96,88,73,29.57,29.34,11,1,30,0.21
2013-10-23,37.9,33.2,27.7,36.4,30.6,23.7,97,90,79,29.57,29.49,9,0,25,0.54
2013-10-24,42.8,36.8,32.7,38.6,34.7,32.2,99,92,80,29.81,29.51,7,0,15,0.19
2013-10-25,42.6,36.4,30.2,41.3,33.5,27.9,99,89,74,29.90,29.44,5,0,12,0.21
2013-10-26,43.9,40.0,33.3,41.8,37.2,29.9,99,90,73,29.63,29.22,10,1,30,0.43
2013-10-27,42.1,36.8,31.1,40.9,34.8,28.3,99,93,86,29.71,29.56,6,0,14,0.09
2013-10-28,38.3,31.8,25.9,35.4,25.2,20.0,89,77,65,30.20,29.71,8,1,18,0.00
2013-10-29,37.8,31.3,25.5,29.6,25.7,20.8,89,80,68,30.22,29.96,2,0,7,0.00
2013-10-30,45.0,38.7,33.1,44.7,37.5,29.3,99,95,85,29.96,29.62,0,0,5,0.12
2013-10-31,51.8,49.2,45.0,51.5,48.9,44.7,99,99,99,29.62,28.77,2,0,7,1.51
2013-11-1,51.6,45.0,37.0,51.3,44.6,35.8,99,99,96,29.42,28.64,8,0,20,0.26
2013-11-2,39.7,34.6,30.9,35.7,29.2,21.2,96,81,65,29.91,29.42,6,0,11,0.00
2013-11-3,41.7,31.8,26.2,29.0,21.1,16.9,71,65,55,30.15,29.91,6,0,14,0.00
2013-11-4,45.1,40.6,31.3,33.7,30.5,22.9,77,68,61,30.16,29.90,9,1,22,0.00
2013-11-5,54.9,45.4,40.3,42.6,34.0,29.8,80,66,47,29.96,29.76,6,0,11,0.31
2013-11-6,48.9,43.1,35.2,48.7,42.0,32.7,99,96,81,29.76,29.33,9,0,20,0.71
2013-11-7,35.4,33.9,32.0,34.8,32.5,30.1,99,95,88,29.75,29.62,9,0,20,0.26
2013-11-8,34.7,32.4,30.6,33.2,30.8,29.1,96,94,90,29.90,29.74,0,0,5,0.05
2013-11-9,38.3,35.6,31.6,38.0,35.2,30.6,99,99,96,29.80,29.31,7,0,20,0.50
2013-11-10,38.7,35.4,31.6,38.4,32.3,27.4,99,89,76,29.86,29.37,10,2,30,0.26
2013-11-11,36.9,27.7,18.7,32.9,21.8,9.6,91,78,67,30.07,29.62,10,2,23,0.05
2013-11-12,27.5,24.4,19.0,18.3,14.4,9.6,73,65,60,30.22,30.07,9,1,24,0.00
2013-11-13,40.5,32.5,23.4,29.4,21.9,12.9,70,65,58,30.08,29.52,9,0,20,0.09
2013-11-14,43.3,38.6,34.2,34.7,30.9,26.4,90,74,66,29.56,29.50,5,0,15,0.33
2013-11-15,49.6,38.6,33.1,45.4,35.4,29.6,99,89,75,29.67,29.52,3,0,7,0.00
2013-11-16,47.7,40.3,31.6,47.2,38.7,30.1,99,94,88,29.68,29.26,8,1,17,0.52
2013-11-17,54.7,51.5,44.2,54.4,51.2,43.8,99,99,99,29.27,28.67,11,1,32,3.47
2013-11-18,44.2,32.8,27.7,44.0,31.0,20.8,99,93,74,29.78,28.78,15,5,35,0.26
2013-11-19,30.4,26.1,22.5,20.9,16.9,13.7,76,68,61,30.09,29.78,8,1,22,0.00
2013-11-20,38.1,32.8,23.7,28.3,23.9,15.7,79,70,61,30.09,29.96,7,0,15,0.02
2013-11-21,38.1,36.5,34.2,34.8,30.7,27.4,91,80,72,29.96,29.88,2,0,7,0.05
2013-11-22,37.2,29.8,25.5,35.7,24.4,17.1,94,80,69,30.04,29.87,9,0,20,0.14
2013-11-23,26.2,15.4,7.3,19.4,1.5,-10.1,75,54,43,30.19,29.89,14,4,32,0.00
2013-11-24,20.8,12.2,3.2,10.2,-2.6,-13.2,63,51,42,30.24,29.82,7,0,16,0.00
2013-11-25,33.1,28.3,20.8,22.8,18.9,10.0,76,68,62,29.82,29.46,7,0,15,0.00
2013-11-26,32.9,27.7,17.8,23.8,16.6,5.1,69,63,57,29.74,29.54,7,0,17,0.00
2013-11-27,21.9,15.0,5.4,8.7,-1.1,-11.6,63,49,38,29.90,29.69,11,2,34,0.00
2013-11-28,19.4,8.5,-0.4,2.9,-6.4,-15.3,57,50,45,30.19,29.90,3,0,7,0.00
2013-11-29,26.2,13.3,-0.8,14.6,0.2,-14.0,64,55,50,30.34,30.17,3,0,8,0.00
2013-11-30,32.4,29.3,25.2,24.5,18.8,13.1,75,65,56,30.18,29.75,5,0,12,0.00
2013-12-1,31.6,29.0,25.3,23.2,18.9,13.0,75,66,57,29.87,29.76,2,0,7,0.00
2013-12-2,32.2,23.4,14.5,17.9,10.4,0.3,68,58,50,29.78,29.64,3,0,8,0.00
2013-12-3,23.7,15.9,3.9,9.9,2.3,-9.3,60,55,52,29.76,29.70,9,0,18,0.00
2013-12-4,33.8,25.6,21.4,27.2,14.4,8.1,77,63,55,29.75,29.18,7,1,20,0.00
2013-12-5,39.0,29.8,15.4,36.1,18.6,-3.1,89,65,43,29.72,29.10,9,1,31,0.07
2013-12-6,23.5,17.9,13.3,8.1,3.4,-3.4,61,53,45,29.99,29.72,8,1,20,0.00
2013-12-7,20.3,15.6,9.3,6.5,1.4,-10.1,62,53,41,30.19,29.98,9,1,18,0.00
2013-12-8,17.8,11.6,3.9,5.0,-4.0,-11.7,58,49,41,30.20,29.81,3,0,10,0.00
2013-12-9,27.7,20.2,10.4,17.6,7.7,-4.8,67,58,47,29.81,29.38,10,1,23,0.00
2013-12-10,15.1,9.0,-0.6,0.9,-5.8,-15.0,55,50,46,29.65,29.47,9,1,25,0.00
2013-12-11,12.7,9.5,5.9,-0.1,-3.0,-7.3,59,56,54,29.94,29.64,9,1,17,0.00
2013-12-12,16.0,8.8,0.1,3.9,-4.8,-14.4,61,53,49,29.93,29.63,8,1,20,0.00
2013-12-13,14.9,-1.4,-13.2,3.9,-17.0,-30.7,61,46,39,30.16,29.65,5,0,11,0.00
2013-12-14,6.8,-2.1,-14.6,-12.4,-19.9,-31.7,46,41,38,30.17,29.68,6,0,14,0.00
2013-12-15,15.8,6.8,-5.6,-1.3,-10.0,-24.6,51,45,38,29.72,29.44,2,0,8,0.00
2013-12-16,7.9,-4.3,-18.0,-7.9,-22.3,-35.9,48,40,36,29.87,29.65,2,0,8,0.00
2013-12-17,21.2,15.4,7.9,7.4,2.4,-7.8,60,56,48,29.65,29.49,2,0,7,0.00
2013-12-18,23.7,20.8,18.0,10.3,8.1,6.2,62,58,50,29.66,29.46,8,0,17,0.00
2013-12-19,28.6,21.9,16.2,19.1,9.6,1.1,70,59,51,29.81,29.42,8,0,18,0.00
2013-12-20,23.4,16.9,12.2,6.4,1.5,-2.0,56,50,44,29.79,29.60,2,0,5,0.00
2013-12-21,25.3,19.5,16.7,9.0,4.3,0.5,58,52,45,29.78,29.57,6,0,11,0.00
2013-12-22,18.7,13.3,5.7,0.5,-4.2,-11.6,49,45,42,29.81,29.63,7,1,18,0.00
2013-12-23,9.5,2.1,-10.3,-10.2,-16.6,-30.8,46,41,34,30.09,29.81,2,0,7,0.00
2013-12-24,6.4,-8.0,-18.2,-9.5,-26.3,-37.2,47,39,33,30.19,30.08,0,0,3,0.00
2013-12-25,20.1,11.3,-3.5,7.5,-2.9,-19.8,58,52,44,30.12,29.70,3,0,10,0.00
2013-12-26,24.1,10.5,-4.7,10.3,-4.5,-19.6,60,50,46,29.87,29.68,5,0,12,0.00
2013-12-27,27.5,19.5,8.8,17.2,5.6,-7.0,65,55,48,29.90,29.54,2,0,9,0.00
2013-12-28,34.0,31.2,23.4,26.3,22.8,15.0,77,71,65,29.68,29.50,6,0,15,0.02
2013-12-29,23.4,7.4,-9.8,15.0,-5.8,-26.6,70,54,42,29.77,29.49,0,0,0,0.00
2013-12-30,9.0,-3.7,-17.5,-6.7,-19.7,-35.0,51,45,38,29.92,29.73,0,0,0,0.00
2013-12-31,12.0,4.5,-3.8,-0.7,-9.7,-18.8,56,51,46,29.95,29.65,6,0,16,0.00
2014-1-1,5.0,-5.3,-15.2,-10.0,-22.3,-33.9,49,42,36,30.20,29.94,0,0,0,0.00
2014-1-2,1.9,-9.2,-18.6,-15.0,-26.4,-36.9,47,41,35,30.13,30.02,0,0,3,0.00